Home   Weather   India   Ulhasnagar   Past weeks
Flag for India

Past Weather in Ulhasnagar, Maharashtra, India — Yesterday and Last 2 Weeks

Currently: 82 °F. Partly cloudy. (Weather station: Mumbai / Santacruz, India). See more current weather

Past Weather in Ulhasnagar — Graph

°F

Ulhasnagar Temperature Yesterday

Maximum temperature yesterday: 86 °F (at 2:30 pm)
Minimum temperature yesterday: 79 °F (at 7:00 am)
Average temperature yesterday: 83 °F

High & Low Weather Summary for the Past Weeks

 TemperatureHumidityPressure
High88 °F (Jul 24, 11:30 am)100% (Jul 20, 10:00 pm)29.80 "Hg (Jul 20, 10:00 pm)
Low77 °F (Jul 21, 8:30 am)74% (Jul 27, 8:30 am)29.50 "Hg (Jul 22, 3:00 pm)
Average83 °F87%29.67 "Hg
* Reported Jul 20 7:30 pm — Aug 4 8:00 pm, Ulhasnagar. Weather by CustomWeather, © 2021

Note: Actual official high and low records may vary slightly from our data, if they occured in-between our weather recording intervals... More about our weather records

Ulhasnagar Weather History for the Previous 24 Hours

Scroll right to see more
 ConditionsComfort  
Time TempWeatherWind HumidityBarometerVisibility
8:00 pm
Wed, Aug 4
84 °FPartly cloudy.14 mph84%29.74 "Hg1 mi
7:00 pm82 °FBroken clouds.9 mph89%29.71 "Hg1 mi
6:30 pm82 °FBroken clouds.20 mph89%29.71 "Hg1 mi
6:00 pm84 °FScattered showers. Broken clouds.13 mph79%29.71 "Hg1 mi
5:30 pm84 °FBroken clouds.15 mph84%29.71 "Hg1 mi
5:00 pm84 °FMore clouds than sun.10 mph84%29.71 "Hg1 mi
4:30 pm84 °FMore clouds than sun.15 mph84%29.71 "Hg1 mi
4:00 pm84 °FBroken clouds.14 mph84%29.71 "Hg1 mi
3:30 pm84 °FBroken clouds.9 mph84%29.71 "Hg1 mi
3:00 pm86 °FBroken clouds.12 mph79%29.74 "Hg1 mi
2:30 pm86 °FBroken clouds.16 mph79%29.74 "Hg1 mi
2:00 pm84 °FScattered showers. Broken clouds.10 mph89%29.74 "Hg1 mi
1:30 pm86 °FBroken clouds.13 mph79%29.74 "Hg1 mi
1:00 pm86 °FBroken clouds.8 mph79%29.77 "Hg1 mi
12:30 pm88 °FBroken clouds.8 mph79%29.77 "Hg1 mi
12:00 pm84 °FBroken clouds.15 mph84%29.77 "Hg1 mi
11:30 am84 °FLight rain. Broken clouds.13 mph84%29.80 "Hg1 mi
11:00 am86 °FBroken clouds.16 mph79%29.80 "Hg2 mi
10:30 am84 °FBroken clouds.14 mph84%29.80 "Hg1 mi
10:00 am84 °FBroken clouds.10 mph84%29.77 "Hg1 mi
9:30 am82 °FBroken clouds.16 mph89%29.77 "Hg1 mi
9:00 am84 °FBroken clouds.14 mph84%29.77 "Hg1 mi
8:30 am84 °FBroken clouds.15 mph84%29.77 "Hg1 mi
8:00 am84 °FBroken clouds.9 mph84%29.77 "Hg1 mi
7:30 am82 °FBroken clouds.13 mph89%29.77 "Hg1 mi
7:00 am82 °FDrizzle. Broken clouds.16 mph89%29.74 "Hg1 mi
6:30 am81 °FPartly cloudy.13 mph94%29.74 "Hg1 mi
5:00 am81 °FPartly cloudy.12 mph94%29.74 "Hg1 mi
4:30 am81 °FPartly cloudy.9 mph94%29.71 "Hg1 mi
4:00 am81 °FLight rain. Partly cloudy.12 mph89%29.71 "Hg1 mi
3:30 am82 °FPartly cloudy.15 mph89%29.71 "Hg1 mi
3:00 am82 °FPartly cloudy.12 mph84%29.74 "Hg1 mi
2:30 am82 °FPartly cloudy.14 mph84%29.74 "Hg1 mi
2:00 am81 °FPassing clouds.14 mph89%29.74 "Hg1 mi
1:30 am82 °FScattered showers. Partly cloudy.13 mph84%29.74 "Hg1 mi
1:00 am82 °FPartly cloudy.13 mph84%29.74 "Hg1 mi
12:00 am82 °FPassing clouds.13 mph84%29.77 "Hg1 mi
11:30 pm
Tue, Aug 3
82 °FPassing clouds.8 mph84%29.77 "Hg1 mi
11:00 pm82 °FPartly cloudy.12 mph89%29.77 "Hg1 mi
10:30 pm82 °FPartly cloudy.14 mph89%29.77 "Hg1 mi
10:00 pm82 °FPartly cloudy.12 mph89%29.77 "Hg1 mi
9:30 pm82 °FPartly cloudy.14 mph89%29.74 "Hg1 mi
9:00 pm82 °FPartly cloudy.10 mph89%29.74 "Hg1 mi
Weather by CustomWeather, © 2021

See weather overview